[[{"header":{"parameterUnit":"m.s-1","parameterCategory":1,"la1":30.2991,"la2":30.254,"lo1":-89.0895,"lo2":-89.0444,"dy":0.0017,"dx":0.0017,"nx":28,"ny":28,"refTime":"2024-09-02T03:00:00:Z","depth":0,"parameterNumber":2,"parameterNumberName":"U-component_of_WINDS"},"data":[0,0,0,0,0,0,0,0,0,0,0,0,0,0,0,0,0,0,0,0,0,0,0,0,0,0,0,0,0,0,0,0,0,0,0,0,0,0,0,0,0,0,0,0,0,0,0,0,0,0,0,0,0,0,0,0,0,0,-0.4957,-0.4956,0,-0.4873,-0.4872,-0.4871,-0.4808,-0.4808,-0.4807,-0.4807,-0.4717,-0.4715,-0.4713,0,0,0,0,0,0,0,0,0,0,0,0,0,-0.5064,-0.5062,-0.4957,-0.4956,-0.4955,-0.4873,-0.4872,-0.487,-0.4808,-0.4808,-0.4807,-0.4806,-0.4717,-0.4715,-0.4713,0,0,0,0,0,0,0,0,0,0,0,0,0,-0.5002,-0.5062,-0.4958,-0.4914,-0.491,-0.4873,-0.4872,-0.487,-0.4808,-0.4808,-0.4807,-0.4806,-0.4718,-0.4715,-0.4712,-0.4711,0,0,-0.4704,-0.4703,0,0,0,0,0,0,0,0,-0.5006,-0.4998,-0.4922,-0.4917,-0.4912,-0.485,-0.4876,-0.4817,-0.4809,-0.4847,-0.4807,-0.4806,-0.4762,-0.4755,-0.4741,-0.4707,-0.4703,-0.4703,-0.4702,-0.4701,-0.47,0,0,0,0,0,0,0,-0.501,-0.5002,-0.4924,-0.4921,-0.4915,-0.4899,-0.4889,-0.4864,-0.481,-0.4843,-0.4839,-0.483,-0.4759,-0.4744,-0.4738,-0.4701,-0.4704,-0.4701,-0.4699,-0.4698,-0.4663,-0.4663,0,0,0,0,0,0,-0.5021,-0.5006,-0.4926,-0.4921,-0.4958,-0.4897,-0.4887,-0.4871,-0.481,-0.48,-0.483,-0.4827,-0.4749,-0.4742,-0.4735,-0.4729,-0.4701,-0.4698,-0.4696,-0.4662,-0.4663,-0.4664,0,0,0,0,0,0,-0.5024,-0.5015,-0.493,-0.4962,-0.495,-0.4897,-0.4879,-0.487,-0.4854,-0.48,-0.479,-0.4825,-0.4748,-0.4739,-0.4718,-0.4725,-0.4697,-0.4694,-0.4661,-0.4662,-0.4663,-0.4719,0,0,0,0,0,0,-0.5027,-0.5016,-0.5015,-0.4963,-0.4949,-0.4915,-0.488,-0.4868,-0.485,-0.4845,-0.4792,-0.4783,-0.4747,-0.4722,-0.4715,-0.4721,-0.4692,-0.466,-0.4662,-0.4663,-0.4716,-0.4722,-0.4726,0,0,0,0,0,-0.5031,-0.5033,-0.5016,-0.5006,-0.4947,-0.4915,-0.4907,-0.4867,-0.4851,-0.485,-0.4815,-0.4785,-0.4726,-0.4721,-0.4712,-0.4717,-0.4659,-0.4661,-0.4663,-0.4713,-0.472,-0.4726,0,0,0,0,0,0,-0.5087,-0.5026,-0.5005,-0.499,-0.4959,-0.4905,-0.4902,-0.4875,-0.4846,-0.4842,-0.4792,-0.4781,-0.4765,-0.4739,-0.4734,-0.4713,-0.4689,-0.4689,-0.4731,-0.4737,-0.4742,-0.4748,-0.4689,0,0,0,0,0,-0.5098,-0.5079,-0.5026,-0.5018,-0.5003,-0.4956,-0.494,-0.4912,-0.4877,-0.4863,-0.4826,-0.4792,-0.4766,-0.475,-0.4723,-0.4712,-0.47,-0.4711,-0.4717,-0.4721,-0.4722,-0.4715,-0.4719,-0.4669,-0.4669,-0.4669,0,0,-0.5119,-0.5084,-0.5074,-0.5028,-0.5,-0.4981,-0.4944,-0.4925,-0.491,-0.4859,-0.4837,-0.481,-0.4769,-0.4753,-0.4744,-0.4731,-0.4733,-0.4724,-0.4728,-0.4725,-0.4717,-0.4722,-0.4726,-0.4671,-0.467,-0.467,0,0,-0.5149,-0.512,-0.5111,-0.5084,-0.5043,-0.5012,-0.501,-0.496,-0.494,-0.4918,-0.488,-0.4861,-0.4817,-0.479,-0.477,-0.4792,-0.4763,-0.4784,-0.4811,-0.4805,-0.4809,-0.4812,-0.482,-0.4824,-0.4785,-0.4785,-0.4785,0,-0.5181,-0.5151,-0.5109,-0.5093,-0.5074,-0.5028,-0.5018,-0.4994,-0.4946,-0.4934,-0.492,-0.4865,-0.4834,-0.4812,-0.4817,-0.4803,-0.4799,-0.4789,-0.4812,-0.4815,-0.4817,-0.4824,-0.4827,-0.4788,-0.4788,-0.4787,-0.4787,0,-0.5192,-0.5172,-0.5169,-0.5126,-0.5106,-0.5093,-0.5049,-0.5035,-0.5009,-0.4979,-0.4957,-0.4919,-0.4884,-0.4877,-0.485,-0.4851,-0.4844,-0.4822,-0.4796,-0.4826,-0.4831,-0.4834,-0.4792,-0.4791,-0.479,-0.4789,0,0,-0.5253,-0.5188,-0.5187,-0.5168,-0.512,-0.5103,-0.5088,-0.5055,-0.5044,-0.5013,-0.4999,-0.4964,-0.4944,-0.4922,-0.4892,-0.4887,-0.4907,-0.4865,-0.4863,-0.4874,-0.4906,-0.4923,-0.4926,-0.4888,-0.4888,-0.4888,-0.4909,0,-0.5275,-0.5247,-0.5209,-0.5193,-0.5175,-0.5132,-0.5119,-0.5089,-0.5061,-0.504,-0.5009,-0.4985,-0.496,-0.4947,-0.494,-0.4906,-0.4912,-0.4904,-0.4874,-0.4873,-0.4885,-0.4929,-0.4946,-0.4968,-0.4911,-0.4911,-0.4912,0,-0.5296,-0.5269,-0.5252,-0.5207,-0.5198,-0.5187,-0.5154,-0.5136,-0.51,-0.508,-0.5057,-0.5025,-0.5007,-0.4985,-0.496,-0.4955,-0.4941,-0.4922,-0.4922,-0.4917,-0.4894,-0.4925,-0.4974,-0.4977,-0.4915,-0.4914,-0.4914,0,-0.5343,-0.5302,-0.5286,-0.5271,-0.5218,-0.5211,-0.5189,-0.5152,-0.5136,-0.5107,-0.5096,-0.5065,-0.5048,-0.5025,-0.4986,-0.4974,-0.4965,-0.494,-0.4948,-0.4949,-0.4947,-0.4947,-0.4993,-0.4938,-0.4938,-0.4938,-0.4938,0,-0.5371,-0.5362,-0.5307,-0.5297,-0.5286,-0.5244,-0.5234,-0.5207,-0.5176,-0.516,-0.5121,-0.5107,-0.5057,-0.5037,-0.5006,-0.499,-0.4983,-0.4966,-0.4958,-0.4969,-0.4971,-0.4959,-0.4956,-0.4939,-0.4939,-0.4939,-0.4939,0,-0.5421,-0.5383,-0.5364,-0.5316,-0.5304,-0.5298,-0.5257,-0.5246,-0.5217,-0.5197,-0.519,-0.5144,-0.5119,-0.5078,-0.504,-0.502,-0.5009,-0.4995,-0.5021,-0.5016,-0.5027,-0.5026,-0.5066,-0.5069,-0.5013,-0.5013,-0.5014,0,-0.5441,-0.5433,-0.5386,-0.5373,-0.5353,-0.5333,-0.5316,-0.5274,-0.5258,-0.5218,-0.5212,-0.5184,-0.5159,-0.5121,-0.5083,-0.5054,-0.504,-0.5056,-0.5035,-0.5047,-0.504,-0.5041,-0.504,-0.506,-0.5061,-0.5062,-0.5062,0,-0.5481,-0.5464,-0.5441,-0.5413,-0.5394,-0.537,-0.5343,-0.5335,-0.5287,-0.5271,-0.5245,-0.5226,-0.5189,-0.5162,-0.5128,-0.5104,-0.5075,-0.5069,-0.507,-0.5081,-0.5097,-0.5089,-0.5034,-0.5068,-0.5068,-0.5067,-0.5067,-0.5067,-0.5517,-0.5508,-0.5474,-0.5451,-0.5427,-0.5403,-0.5391,-0.5361,-0.534,-0.5307,-0.5283,-0.5259,-0.5225,-0.5177,-0.5155,-0.5135,-0.5122,-0.5123,-0.5123,-0.5123,-0.5128,-0.51,-0.5129,-0.5129,-0.5128,-0.5128,-0.5128,0,-0.5555,-0.5532,-0.5511,-0.5475,-0.5457,-0.5434,-0.5403,-0.5389,-0.5369,-0.534,-0.5317,-0.5289,-0.5262,-0.5224,-0.5194,-0.5186,-0.5173,-0.518,-0.518,-0.5175,-0.5141,-0.5144,-0.5192,-0.5192,-0.5192,-0.5192,-0.5192,-0.5192,-0.5573,-0.5558,-0.5537,-0.551,-0.5486,-0.5463,-0.5448,-0.5426,-0.5403,-0.5373,-0.5352,-0.5327,-0.5294,-0.5262,-0.5237,-0.5227,-0.5218,-0.5229,-0.5215,-0.5183,-0.5177,-0.5172,-0.5174,-0.5228,-0.5228,-0.525,-0.525,-0.5251]},{"header":{"parameterUnit":"m.s-1","parameterCategory":1,"la1":30.2991,"la2":30.254,"lo1":-89.0895,"lo2":-89.0444,"dy":0.0017,"dx":0.0017,"nx":28,"ny":28,"refTime":"2024-09-02T03:00:00:Z","depth":0,"parameterNumber":3,"parameterNumberName":"V-component_of_WINDS"},"data":[0,0,0,0,0,0,0,0,0,0,0,0,0,0,0,0,0,0,0,0,0,0,0,0,0,0,0,0,0,0,0,0,0,0,0,0,0,0,0,0,0,0,0,0,0,0,0,0,0,0,0,0,0,0,0,0,0,0,0.5569,0.5569,0,0.5533,0.5532,0.5532,0.5526,0.5527,0.5527,0.5527,0.5488,0.5487,0.5486,0,0,0,0,0,0,0,0,0,0,0,0,0,0.5631,0.563,0.5569,0.5569,0.5568,0.5533,0.5532,0.5532,0.5526,0.5527,0.5527,0.5528,0.5489,0.5487,0.5485,0,0,0,0,0,0,0,0,0,0,0,0,0,0.56,0.5629,0.5569,0.5561,0.556,0.5533,0.5532,0.5532,0.5526,0.5527,0.5527,0.5528,0.5489,0.5487,0.5485,0.5463,0,0,0.5479,0.5478,0,0,0,0,0,0,0,0,0.5602,0.5598,0.5563,0.5562,0.556,0.5535,0.554,0.5509,0.5526,0.5539,0.5527,0.5528,0.5503,0.55,0.5492,0.5461,0.5459,0.5479,0.5478,0.5477,0.5476,0,0,0,0,0,0,0,0.5604,0.5599,0.5555,0.5562,0.5561,0.5559,0.5555,0.5534,0.5519,0.5538,0.5537,0.5533,0.5503,0.5494,0.5491,0.5459,0.5479,0.5477,0.5476,0.5475,0.5407,0.5406,0,0,0,0,0,0,0.5608,0.5601,0.5556,0.5554,0.5583,0.5557,0.5553,0.5542,0.5519,0.5516,0.5533,0.5533,0.5497,0.5493,0.549,0.5462,0.5477,0.5475,0.5474,0.5407,0.5407,0.5406,0,0,0,0,0,0,0.5609,0.5604,0.5557,0.5577,0.5571,0.5555,0.5544,0.5541,0.5533,0.5515,0.5512,0.5527,0.5497,0.5493,0.547,0.546,0.5474,0.5472,0.5408,0.5407,0.5406,0.5406,0,0,0,0,0,0,0.5611,0.5604,0.5596,0.5577,0.557,0.5539,0.5543,0.554,0.553,0.553,0.5509,0.5506,0.5497,0.5473,0.5468,0.5458,0.5471,0.5409,0.5408,0.5407,0.5406,0.5405,0.5403,0,0,0,0,0,0.5613,0.5597,0.5596,0.5591,0.556,0.5538,0.5534,0.5525,0.5529,0.552,0.5509,0.5507,0.5462,0.547,0.5465,0.5454,0.5409,0.5408,0.5407,0.5407,0.5405,0.5403,0,0,0,0,0,0,0.5615,0.5595,0.5593,0.5571,0.5556,0.5537,0.5526,0.5523,0.5507,0.5508,0.5496,0.5492,0.5469,0.5459,0.5469,0.5431,0.5436,0.5433,0.5438,0.5436,0.5435,0.5437,0.5469,0,0,0,0,0,0.5613,0.5598,0.558,0.5562,0.5555,0.5542,0.5532,0.5526,0.5511,0.5504,0.5491,0.5476,0.5458,0.5446,0.5429,0.5405,0.54,0.5395,0.5393,0.5392,0.539,0.5376,0.5373,0.5402,0.5402,0.5402,0,0,0.5609,0.5595,0.5586,0.5562,0.555,0.5534,0.5537,0.5519,0.5507,0.5501,0.5479,0.5469,0.545,0.5427,0.5415,0.5418,0.5381,0.539,0.539,0.5388,0.5374,0.5371,0.5369,0.5401,0.5401,0.5401,0,0,0.5592,0.5581,0.5564,0.5552,0.5534,0.5526,0.5522,0.5503,0.5496,0.5474,0.5469,0.5454,0.5424,0.5411,0.54,0.5378,0.5375,0.5372,0.5365,0.5351,0.5348,0.5346,0.5338,0.5335,0.537,0.537,0.537,0,0.5588,0.5564,0.5556,0.5538,0.5528,0.5523,0.5505,0.5494,0.5471,0.5463,0.5466,0.5428,0.5415,0.5388,0.5383,0.5375,0.5369,0.5375,0.535,0.5347,0.5345,0.5337,0.5334,0.537,0.537,0.537,0.537,0,0.556,0.5543,0.5532,0.5511,0.5499,0.5481,0.547,0.5458,0.5453,0.5444,0.5421,0.5405,0.5385,0.5378,0.5373,0.5349,0.5351,0.5352,0.5357,0.5343,0.5335,0.5332,0.537,0.537,0.537,0.537,0,0,0.5544,0.5518,0.5514,0.5504,0.5484,0.547,0.5453,0.5433,0.5423,0.5407,0.5392,0.5366,0.5367,0.5355,0.5348,0.5336,0.5319,0.5338,0.5337,0.5335,0.5291,0.5291,0.5288,0.5317,0.5316,0.5316,0.5293,0,0.5525,0.5494,0.5485,0.5458,0.5442,0.5437,0.5421,0.5407,0.5397,0.5382,0.5371,0.5353,0.5355,0.5348,0.5336,0.5324,0.531,0.5325,0.5301,0.5301,0.5306,0.5284,0.5283,0.5263,0.529,0.5289,0.5289,0,0.5498,0.5482,0.5454,0.5436,0.5429,0.5415,0.5396,0.5381,0.5364,0.5358,0.5345,0.5339,0.5319,0.5325,0.5298,0.5308,0.5298,0.529,0.5289,0.5286,0.5294,0.528,0.5256,0.5253,0.5284,0.5284,0.5285,0,0.5489,0.546,0.544,0.5431,0.5409,0.54,0.539,0.5373,0.5362,0.5345,0.5338,0.5318,0.5308,0.5293,0.5282,0.5287,0.5255,0.526,0.5248,0.5249,0.5242,0.5242,0.5215,0.5235,0.5235,0.5235,0.5236,0,0.5468,0.5451,0.5435,0.5423,0.5403,0.5393,0.5373,0.5363,0.5349,0.5333,0.5327,0.5312,0.5299,0.5282,0.5274,0.5252,0.5247,0.5241,0.5239,0.5241,0.5242,0.5234,0.5235,0.5235,0.5235,0.5235,0.5235,0,0.5454,0.5443,0.542,0.5401,0.5396,0.5382,0.5366,0.5353,0.5343,0.5323,0.5318,0.5303,0.5283,0.527,0.5245,0.5239,0.5215,0.5213,0.5221,0.522,0.5209,0.521,0.5176,0.517,0.5194,0.5194,0.5194,0,0.5442,0.5428,0.5408,0.5398,0.5388,0.5371,0.536,0.5349,0.5337,0.5316,0.5305,0.5285,0.5269,0.5237,0.5223,0.5203,0.5201,0.519,0.5198,0.5201,0.52,0.5201,0.52,0.5189,0.5189,0.5189,0.5188,0,0.5421,0.5416,0.54,0.5381,0.5368,0.5353,0.5338,0.5329,0.5316,0.5303,0.5283,0.527,0.5244,0.5224,0.5203,0.5192,0.5187,0.5186,0.5182,0.5185,0.519,0.5187,0.5217,0.5187,0.5187,0.5187,0.5187,0.5187,0.5407,0.5395,0.5378,0.536,0.5348,0.5334,0.5321,0.5309,0.5293,0.5271,0.5266,0.5245,0.5227,0.5199,0.5187,0.517,0.5171,0.5166,0.5164,0.5163,0.5163,0.5193,0.5166,0.5166,0.5166,0.5166,0.5166,0,0.5385,0.5374,0.5358,0.5337,0.5323,0.5321,0.5304,0.5292,0.5274,0.5258,0.5242,0.5218,0.5199,0.5183,0.5162,0.5151,0.5149,0.5146,0.5147,0.5144,0.5163,0.5168,0.5149,0.5149,0.5149,0.5149,0.5149,0.5149,0.5372,0.5352,0.5345,0.5317,0.5306,0.5286,0.5276,0.5263,0.525,0.5225,0.5209,0.5199,0.5183,0.5161,0.5142,0.5138,0.5131,0.5128,0.5124,0.5141,0.5143,0.5145,0.515,0.5127,0.5127,0.5107,0.5107,0.5106]}]]